[[{"header":{"parameterUnit":"m.s-1","parameterCategory":1,"la1":30.2991,"la2":30.254,"lo1":-89.0895,"lo2":-89.0444,"dy":0.0017,"dx":0.0017,"nx":28,"ny":28,"refTime":"2024-02-13T09:00:00:Z","depth":0,"parameterNumber":2,"parameterNumberName":"U-component_of_WINDS"},"data":[0,0,0,0,0,0,0,0,0,0,0,0,0,0,0,0,0,0,0,0,0,0,0,0,0,0,0,0,0,0,0,0,0,0,0,0,0,0,0,0,0,0,0,0,0,0,0,0,0,0,0,0,0,0,0,0,0,0,5.4969,5.497,0,5.5042,5.5042,5.5043,5.4953,5.495,5.4946,5.4943,5.5017,5.5022,5.5027,0,0,0,0,0,0,0,0,0,0,0,0,0,5.4753,5.4757,5.4969,5.497,5.4971,5.5041,5.5042,5.5043,5.4954,5.495,5.4945,5.4942,5.5015,5.5021,5.5027,0,0,0,0,0,0,0,0,0,0,0,0,0,5.4838,5.4759,5.4969,5.4934,5.4932,5.5041,5.5042,5.5044,5.4954,5.4949,5.4944,5.494,5.5013,5.5021,5.5028,5.5174,0,0,5.5051,5.5055,0,0,0,0,0,0,0,0,5.4834,5.4846,5.4939,5.4937,5.4935,5.4983,5.4993,5.5087,5.4956,5.4946,5.4943,5.4937,5.501,5.5017,5.5042,5.5178,5.5181,5.5052,5.5057,5.506,5.5062,0,0,0,0,0,0,0,5.4828,5.4843,5.4997,5.494,5.4938,5.4916,5.4922,5.5011,5.5005,5.4946,5.494,5.495,5.5008,5.5035,5.5043,5.5182,5.5052,5.5058,5.5063,5.5066,5.5443,5.5448,0,0,0,0,0,0,5.4826,5.4838,5.4995,5.5,5.4871,5.4924,5.4931,5.4973,5.5004,5.5003,5.4954,5.4945,5.5024,5.5034,5.5045,5.5219,5.506,5.5067,5.5071,5.5438,5.5444,5.545,0,0,0,0,0,0,5.4822,5.4841,5.4992,5.4917,5.4935,5.4932,5.498,5.4977,5.5003,5.5009,5.5008,5.4983,5.5021,5.5034,5.5143,5.522,5.507,5.5077,5.5431,5.544,5.5447,5.5568,0,0,0,0,0,0,5.4816,5.484,5.4895,5.4919,5.4939,5.509,5.4985,5.4982,5.5017,5.5006,5.5036,5.5036,5.5018,5.5132,5.5151,5.5228,5.5083,5.5424,5.5435,5.5445,5.5557,5.558,5.5599,0,0,0,0,0,5.4808,5.4926,5.4898,5.4918,5.5008,5.5094,5.5106,5.5082,5.5023,5.5079,5.5083,5.5035,5.5209,5.5144,5.5164,5.5245,5.5419,5.5432,5.5444,5.5548,5.5575,5.5598,0,0,0,0,0,0,5.491,5.4928,5.4898,5.5027,5.506,5.5079,5.5148,5.5112,5.5162,5.515,5.5119,5.5126,5.5243,5.5254,5.5182,5.5389,5.5304,5.5321,5.5377,5.5403,5.5423,5.5418,5.5089,0,0,0,0,0,5.4947,5.5015,5.5028,5.514,5.5158,5.5151,5.5187,5.5167,5.52,5.5213,5.5225,5.5258,5.5321,5.5362,5.542,5.5559,5.5564,5.5624,5.5645,5.5662,5.5677,5.5753,5.578,5.5491,5.5491,5.549,0,0,5.5025,5.5044,5.5088,5.5161,5.5184,5.5256,5.5163,5.5242,5.5295,5.5225,5.5329,5.5339,5.5374,5.55,5.5555,5.5513,5.5758,5.5678,5.5691,5.5697,5.5768,5.5796,5.582,5.5499,5.5498,5.5496,0,0,5.5204,5.5225,5.5321,5.5347,5.5383,5.5378,5.5401,5.5426,5.5431,5.5534,5.5484,5.5546,5.5654,5.5682,5.571,5.5901,5.5859,5.5921,5.6029,5.6103,5.6126,5.6146,5.6215,5.624,5.5936,5.5936,5.5936,0,5.5296,5.5402,5.5375,5.5459,5.5493,5.5433,5.5531,5.5557,5.5611,5.5635,5.5588,5.5723,5.5742,5.5874,5.5921,5.5945,5.5971,5.5917,5.6125,5.6145,5.6163,5.6229,5.6255,5.5943,5.5943,5.5942,5.5941,0,5.5514,5.5588,5.5662,5.5716,5.5758,5.5849,5.5836,5.5882,5.5859,5.5858,5.5966,5.5987,5.6049,5.6078,5.6056,5.6208,5.618,5.6129,5.6044,5.6198,5.626,5.6284,5.5954,5.5951,5.5949,5.5947,0,0,5.5758,5.5797,5.5825,5.5849,5.5886,5.5943,5.6031,5.6092,5.6133,5.6172,5.6246,5.6339,5.6292,5.6325,5.6305,5.637,5.6522,5.6311,5.6311,5.635,5.6692,5.673,5.676,5.6494,5.6499,5.6502,5.6689,0,5.5938,5.6091,5.607,5.6217,5.6286,5.6231,5.6308,5.6339,5.6342,5.6401,5.6403,5.6471,5.6403,5.6423,5.6485,5.649,5.659,5.6476,5.6563,5.6566,5.6556,5.6792,5.6833,5.7008,5.6713,5.6717,5.672,0,5.6168,5.6217,5.6371,5.6398,5.6426,5.6496,5.6551,5.6608,5.6642,5.664,5.6677,5.6646,5.6734,5.6648,5.677,5.6693,5.6728,5.6736,5.6742,5.6749,5.6653,5.6806,5.7063,5.7089,5.6757,5.6754,5.6751,0,5.6332,5.6436,5.6542,5.6564,5.6599,5.6649,5.6666,5.6695,5.6734,5.6782,5.6806,5.6864,5.6896,5.6942,5.6927,5.6865,5.7053,5.6965,5.7054,5.7055,5.7096,5.7094,5.7363,5.7118,5.7117,5.7117,5.7116,0,5.6535,5.6632,5.6616,5.6682,5.6789,5.6764,5.6871,5.6881,5.6908,5.6975,5.693,5.6994,5.697,5.7033,5.7022,5.7126,5.714,5.7141,5.7137,5.7145,5.7146,5.7168,5.7155,5.7124,5.7122,5.7121,5.712,0,5.6737,5.673,5.6842,5.6866,5.6874,5.6952,5.6972,5.7034,5.7033,5.7119,5.7137,5.7136,5.7208,5.7198,5.7277,5.7269,5.7399,5.738,5.7388,5.7384,5.7474,5.7466,5.7767,5.7805,5.7535,5.7538,5.754,0,5.6867,5.6941,5.6973,5.7014,5.7035,5.7102,5.7141,5.7121,5.7163,5.7209,5.7266,5.7333,5.7386,5.7502,5.7509,5.757,5.7552,5.7653,5.7561,5.7568,5.7555,5.7551,5.7559,5.7672,5.7675,5.7677,5.7679,0,5.71,5.7093,5.7152,5.721,5.7258,5.7303,5.7343,5.738,5.7362,5.7413,5.7486,5.7527,5.7608,5.7676,5.7733,5.775,5.7713,5.7708,5.7732,5.7742,5.7744,5.7745,5.7438,5.7702,5.7699,5.7698,5.7697,5.7696,5.7271,5.7334,5.7367,5.7434,5.7462,5.7501,5.756,5.7568,5.7628,5.7693,5.7677,5.7759,5.7793,5.7866,5.789,5.7954,5.7917,5.7951,5.796,5.7969,5.7981,5.7734,5.7964,5.7964,5.7963,5.7962,5.7962,0,5.7502,5.7521,5.7583,5.7641,5.7694,5.7654,5.7697,5.7744,5.7817,5.7852,5.7905,5.7989,5.8055,5.8068,5.813,5.818,5.8164,5.8197,5.8193,5.8198,5.801,5.7983,5.8209,5.8209,5.8209,5.8209,5.8209,5.8208,5.7629,5.7734,5.7732,5.7851,5.7868,5.7949,5.7977,5.8013,5.8041,5.8137,5.8192,5.8199,5.8226,5.829,5.8349,5.8351,5.8377,5.8417,5.8412,5.8236,5.8211,5.8188,5.8163,5.8422,5.8423,5.8595,5.8597,5.8598]},{"header":{"parameterUnit":"m.s-1","parameterCategory":1,"la1":30.2991,"la2":30.254,"lo1":-89.0895,"lo2":-89.0444,"dy":0.0017,"dx":0.0017,"nx":28,"ny":28,"refTime":"2024-02-13T09:00:00:Z","depth":0,"parameterNumber":3,"parameterNumberName":"V-component_of_WINDS"},"data":[0,0,0,0,0,0,0,0,0,0,0,0,0,0,0,0,0,0,0,0,0,0,0,0,0,0,0,0,0,0,0,0,0,0,0,0,0,0,0,0,0,0,0,0,0,0,0,0,0,0,0,0,0,0,0,0,0,0,-4.61,-4.6102,0,-4.63,-4.6302,-4.6304,-4.6292,-4.6289,-4.6286,-4.6283,-4.6491,-4.6499,-4.6507,0,0,0,0,0,0,0,0,0,0,0,0,0,-4.5709,-4.5716,-4.6099,-4.6102,-4.6104,-4.6299,-4.6302,-4.6305,-4.6292,-4.6288,-4.6285,-4.6281,-4.6488,-4.6498,-4.6507,0,0,0,0,0,0,0,0,0,0,0,0,0,-4.5891,-4.5718,-4.6099,-4.6121,-4.6125,-4.6299,-4.6302,-4.6306,-4.6293,-4.6288,-4.6284,-4.628,-4.6485,-4.6497,-4.6509,-4.6674,0,0,-4.6547,-4.6552,0,0,0,0,0,0,0,0,-4.588,-4.5905,-4.6116,-4.612,-4.6125,-4.6266,-4.6241,-4.6429,-4.6294,-4.6229,-4.6283,-4.6278,-4.642,-4.6437,-4.6484,-4.6684,-4.6692,-4.6548,-4.6555,-4.6561,-4.6564,0,0,0,0,0,0,0,-4.5868,-4.5896,-4.6179,-4.6119,-4.6124,-4.6122,-4.6143,-4.6276,-4.6347,-4.6235,-4.6234,-4.6258,-4.6421,-4.6472,-4.6489,-4.6696,-4.6548,-4.6559,-4.6566,-4.6571,-4.7042,-4.7046,0,0,0,0,0,0,-4.585,-4.5886,-4.6172,-4.6185,-4.5989,-4.6133,-4.6157,-4.6225,-4.6345,-4.6359,-4.6261,-4.6257,-4.6453,-4.6475,-4.6496,-4.6699,-4.6561,-4.6572,-4.6579,-4.7037,-4.7043,-4.7048,0,0,0,0,0,0,-4.5841,-4.5875,-4.6164,-4.6035,-4.6072,-4.6144,-4.6222,-4.6232,-4.6283,-4.6366,-4.6378,-4.6301,-4.6451,-4.6479,-4.663,-4.6706,-4.6578,-4.6589,-4.7031,-4.7038,-4.7045,-4.7104,0,0,0,0,0,0,-4.583,-4.5872,-4.5935,-4.6037,-4.6079,-4.6294,-4.6226,-4.6239,-4.6304,-4.6299,-4.6406,-4.6419,-4.645,-4.6612,-4.6642,-4.6721,-4.6599,-4.7024,-4.7034,-4.7043,-4.7095,-4.7112,-4.7127,0,0,0,0,0,-4.5816,-4.5944,-4.5938,-4.5973,-4.6159,-4.6298,-4.6322,-4.6354,-4.631,-4.6374,-4.6428,-4.6416,-4.6692,-4.6627,-4.6662,-4.6745,-4.702,-4.7031,-4.7042,-4.7088,-4.7109,-4.7127,0,0,0,0,0,0,-4.585,-4.5958,-4.5953,-4.6117,-4.6198,-4.6296,-4.6378,-4.6375,-4.6471,-4.6463,-4.6499,-4.6523,-4.6675,-4.6725,-4.665,-4.6911,-4.685,-4.6869,-4.6873,-4.6894,-4.6909,-4.6895,-4.6609,0,0,0,0,0,-4.5877,-4.598,-4.6069,-4.6205,-4.6246,-4.6305,-4.6367,-4.6384,-4.647,-4.6505,-4.6569,-4.6654,-4.676,-4.683,-4.6932,-4.7102,-4.7126,-4.7176,-4.7192,-4.7205,-4.7221,-4.7316,-4.734,-4.7086,-4.7085,-4.7085,0,0,-4.5933,-4.6004,-4.6067,-4.6214,-4.6279,-4.6386,-4.6334,-4.645,-4.653,-4.6523,-4.667,-4.672,-4.6817,-4.6979,-4.7053,-4.7025,-4.7296,-4.7219,-4.7228,-4.7238,-4.733,-4.7354,-4.7376,-4.7093,-4.7092,-4.7091,0,0,-4.609,-4.6154,-4.6275,-4.6341,-4.644,-4.6479,-4.6508,-4.6606,-4.6639,-4.6786,-4.6783,-4.688,-4.7061,-4.7131,-4.7191,-4.7375,-4.7368,-4.7407,-4.749,-4.7582,-4.7602,-4.762,-4.7687,-4.7711,-4.7422,-4.7423,-4.7423,0,-4.6147,-4.6308,-4.6338,-4.6455,-4.652,-4.6517,-4.6641,-4.6704,-4.6832,-4.6877,-4.6843,-4.7072,-4.7137,-4.7316,-4.7361,-4.7408,-4.7444,-4.7395,-4.7597,-4.7615,-4.7632,-4.7697,-4.7722,-4.7427,-4.7426,-4.7426,-4.7426,0,-4.6375,-4.6486,-4.6572,-4.6695,-4.677,-4.689,-4.6938,-4.701,-4.7021,-4.7063,-4.7214,-4.7292,-4.7411,-4.7454,-4.7466,-4.7635,-4.7615,-4.7588,-4.7528,-4.766,-4.7721,-4.7746,-4.7433,-4.7431,-4.743,-4.7429,0,0,-4.656,-4.6697,-4.6729,-4.6785,-4.6894,-4.6982,-4.7101,-4.7216,-4.7278,-4.7366,-4.7469,-4.7623,-4.7599,-4.7667,-4.7686,-4.7767,-4.791,-4.7731,-4.7734,-4.7763,-4.8103,-4.8123,-4.8151,-4.7905,-4.791,-4.7914,-4.8095,0,-4.6729,-4.6941,-4.6971,-4.7159,-4.7264,-4.7263,-4.7367,-4.7446,-4.7489,-4.7584,-4.7632,-4.7741,-4.7701,-4.7742,-4.7821,-4.7875,-4.7979,-4.7862,-4.8003,-4.8007,-4.798,-4.8183,-4.8205,-4.8372,-4.8119,-4.8123,-4.8126,0,-4.6956,-4.705,-4.7247,-4.7343,-4.7388,-4.7482,-4.759,-4.7681,-4.7771,-4.7796,-4.7871,-4.7881,-4.8007,-4.794,-4.8114,-4.8034,-4.8093,-4.8129,-4.8136,-4.8152,-4.8076,-4.8205,-4.8426,-4.8451,-4.8164,-4.8161,-4.8158,0,-4.7073,-4.7249,-4.739,-4.7438,-4.7553,-4.7619,-4.767,-4.7755,-4.7823,-4.7917,-4.7962,-4.807,-4.813,-4.8214,-4.8254,-4.8201,-4.8426,-4.8362,-4.8452,-4.8451,-4.8501,-4.8498,-4.8736,-4.8536,-4.8536,-4.8535,-4.8535,0,-4.726,-4.7382,-4.7444,-4.7532,-4.7668,-4.7702,-4.7836,-4.7885,-4.7961,-4.8059,-4.8064,-4.8156,-4.8202,-4.8301,-4.8332,-4.8472,-4.8499,-4.8524,-4.8532,-4.8525,-4.8522,-4.8565,-4.8555,-4.8542,-4.8541,-4.8539,-4.8538,0,-4.7415,-4.7461,-4.7616,-4.7711,-4.7738,-4.7835,-4.7917,-4.8003,-4.8044,-4.8168,-4.8199,-4.8265,-4.8381,-4.8428,-4.8571,-4.8593,-4.8755,-4.8752,-4.8724,-4.8727,-4.8815,-4.8807,-4.909,-4.913,-4.8903,-4.8905,-4.8907,0,-4.7532,-4.7625,-4.7731,-4.7796,-4.7849,-4.7954,-4.8023,-4.806,-4.8131,-4.8241,-4.8314,-4.843,-4.8525,-4.8712,-4.8773,-4.8883,-4.8884,-4.8976,-4.8901,-4.8892,-4.8888,-4.8882,-4.8892,-4.899,-4.8993,-4.8994,-4.8996,0,-4.7735,-4.7754,-4.7852,-4.7959,-4.8041,-4.8127,-4.8211,-4.8265,-4.8315,-4.8395,-4.8514,-4.8588,-4.8734,-4.885,-4.8963,-4.9017,-4.9016,-4.9019,-4.9046,-4.9041,-4.9022,-4.9035,-4.8764,-4.9013,-4.9011,-4.901,-4.9009,-4.9008,-4.7876,-4.7959,-4.8047,-4.8157,-4.8223,-4.8302,-4.8387,-4.8439,-4.8539,-4.866,-4.8676,-4.8804,-4.8892,-4.9044,-4.9102,-4.9204,-4.918,-4.9219,-4.9229,-4.9238,-4.9245,-4.9004,-4.9224,-4.9224,-4.9223,-4.9223,-4.9223,0,-4.8081,-4.8137,-4.8238,-4.8355,-4.8442,-4.8431,-4.8524,-4.8598,-4.871,-4.8792,-4.8885,-4.9023,-4.9135,-4.9205,-4.9319,-4.9387,-4.9389,-4.9416,-4.9412,-4.9425,-4.9259,-4.9225,-4.9412,-4.9412,-4.9412,-4.9412,-4.9412,-4.9412,-4.8198,-4.8339,-4.8368,-4.8543,-4.8598,-4.8723,-4.8777,-4.885,-4.8915,-4.9068,-4.9162,-4.9206,-4.9284,-4.9403,-4.9507,-4.9524,-4.9567,-4.9595,-4.9612,-4.9456,-4.9436,-4.9417,-4.9386,-4.9604,-4.9604,-4.9769,-4.9771,-4.9772]}]]